CSA899 LKPR-LKPR

Flight info

Callsign CSA899
Flight time 0h 27m
Altitude 8000
Route RADAR/30 OKL
Aircraft A320/M-SDE3FGHIRWY/LB1

Departure

Time 2026-04-30 18:27
Airport Václav Havel Airport Prague (LKPR)

Arrival

Time 2026-04-30 18:54
Airport Václav Havel Airport Prague (LKPR)
Time Latitude Longitude Altitude Speed Heading
2026-04-30 18:20 50.10320 14.26731 1170 ft 0 kts 305°
2026-04-30 18:21 50.10330 14.26710 1170 ft 7 kts 307°
2026-04-30 18:22 50.10348 14.26645 1172 ft 7 kts 262°
2026-04-30 18:22 50.10242 14.26534 1176 ft 13 kts 172°
2026-04-30 18:22 50.10174 14.26654 1178 ft 17 kts 128°
2026-04-30 18:23 50.10093 14.26812 1186 ft 19 kts 126°
2026-04-30 18:23 50.10018 14.26960 1195 ft 15 kts 130°
2026-04-30 18:23 50.09962 14.27082 1199 ft 12 kts 123°
2026-04-30 18:23 50.09919 14.27177 1201 ft 9 kts 126°
2026-04-30 18:24 50.09838 14.27341 1203 ft 12 kts 131°
2026-04-30 18:24 50.09787 14.27418 1205 ft 9 kts 138°
2026-04-30 18:24 50.09748 14.27472 1206 ft 9 kts 138°
2026-04-30 18:25 50.09671 14.27586 1207 ft 21 kts 136°
2026-04-30 18:25 50.09506 14.27539 1213 ft 11 kts 216°
2026-04-30 18:25 50.09437 14.27450 1210 ft 14 kts 239°
2026-04-30 18:26 50.09528 14.27164 1207 ft 53 kts 307°
2026-04-30 18:26 50.09913 14.26370 1199 ft 126 kts 306°
2026-04-30 18:26 50.10547 14.25078 1315 ft 167 kts 312°
2026-04-30 18:27 50.12096 14.22086 2782 ft 184 kts 312°
2026-04-30 18:27 50.12913 14.20513 3455 ft 193 kts 313°
2026-04-30 18:28 50.14849 14.16917 4405 ft 240 kts 313°
2026-04-30 18:28 50.16188 14.15219 4896 ft 259 kts 336°
2026-04-30 18:28 50.19622 14.15421 5012 ft 255 kts 34°
2026-04-30 18:29 50.20822 14.17411 5012 ft 254 kts 63°
2026-04-30 18:29 50.19965 14.25275 5016 ft 260 kts 115°
2026-04-30 18:30 50.18315 14.30300 5013 ft 260 kts 115°
2026-04-30 18:30 50.16616 14.35297 5011 ft 261 kts 121°
2026-04-30 18:31 50.14634 14.39454 5015 ft 262 kts 125°
2026-04-30 18:32 50.12407 14.43978 5013 ft 263 kts 125°
2026-04-30 18:32 50.11294 14.46241 5007 ft 263 kts 125°
2026-04-30 18:32 50.09066 14.50765 5012 ft 264 kts 125°
2026-04-30 18:33 50.07950 14.53030 5010 ft 264 kts 125°
2026-04-30 18:33 50.05009 14.56286 5012 ft 270 kts 162°
2026-04-30 18:33 50.03207 14.56985 5012 ft 271 kts 165°
2026-04-30 18:34 50.01372 14.57642 5007 ft 259 kts 165°
2026-04-30 18:34 49.98081 14.57909 4851 ft 233 kts 204°
2026-04-30 18:34 49.96838 14.56372 4540 ft 230 kts 238°
2026-04-30 18:35 49.96360 14.54077 4193 ft 223 kts 276°
2026-04-30 18:35 49.96952 14.51986 4018 ft 212 kts 321°
2026-04-30 18:35 49.98104 14.50646 4003 ft 202 kts 321°
2026-04-30 18:36 49.99779 14.47263 4011 ft 195 kts 310°
2026-04-30 18:36 50.00594 14.45578 3975 ft 194 kts 310°
2026-04-30 18:36 50.02169 14.42337 3554 ft 183 kts 310°
2026-04-30 18:37 50.02928 14.40778 3306 ft 179 kts 311°
2026-04-30 18:37 50.03672 14.39247 3075 ft 175 kts 310°
2026-04-30 18:37 50.04403 14.37743 2824 ft 172 kts 311°
2026-04-30 18:37 50.05096 14.36312 2618 ft 157 kts 311°
2026-04-30 18:38 50.05727 14.35011 2393 ft 145 kts 311°
2026-04-30 18:38 50.06301 14.33786 2171 ft 139 kts 310°
2026-04-30 18:38 50.06886 14.32603 1995 ft 137 kts 312°
2026-04-30 18:38 50.07461 14.31436 1813 ft 136 kts 309°
2026-04-30 18:39 50.08023 14.30252 1622 ft 137 kts 309°
2026-04-30 18:39 50.08594 14.29072 1439 ft 136 kts 310°
2026-04-30 18:39 50.09168 14.27910 1270 ft 135 kts 308°
2026-04-30 18:39 50.09732 14.26747 1228 ft 138 kts 310°
2026-04-30 18:40 50.10357 14.25581 1986 ft 146 kts 313°
2026-04-30 18:40 50.11033 14.24318 2847 ft 158 kts 313°
2026-04-30 18:40 50.11711 14.22983 3622 ft 155 kts 312°
2026-04-30 18:40 50.12417 14.21611 3995 ft 179 kts 313°
2026-04-30 18:41 50.13288 14.19985 4197 ft 209 kts 313°
2026-04-30 18:41 50.14253 14.18213 4168 ft 214 kts 314°
2026-04-30 18:41 50.15239 14.16466 4085 ft 213 kts 323°
2026-04-30 18:41 50.16551 14.15593 4036 ft 205 kts
2026-04-30 18:42 50.17877 14.16103 4021 ft 201 kts 36°
2026-04-30 18:42 50.18746 14.19943 4014 ft 205 kts 105°
2026-04-30 18:42 50.18184 14.22008 4014 ft 208 kts 114°
2026-04-30 18:45 50.11346 14.42034 4011 ft 210 kts 115°
2026-04-30 18:45 50.10653 14.44042 4011 ft 210 kts 115°
2026-04-30 18:45 50.09962 14.46047 4010 ft 210 kts 115°
2026-04-30 18:46 50.09494 14.47409 4011 ft 210 kts 115°
2026-04-30 18:46 50.08728 14.49353 4011 ft 212 kts 123°
2026-04-30 18:46 50.07917 14.51024 4013 ft 212 kts 125°
2026-04-30 18:46 50.06994 14.52864 4011 ft 212 kts 125°
2026-04-30 18:47 50.06097 14.54645 4012 ft 212 kts 125°
2026-04-30 18:47 50.05186 14.56451 4014 ft 212 kts 125°
2026-04-30 18:47 50.04271 14.58266 4010 ft 213 kts 125°
2026-04-30 18:47 50.03358 14.60076 4013 ft 213 kts 125°
2026-04-30 18:48 50.02443 14.61885 4010 ft 213 kts 127°
2026-04-30 18:48 50.01257 14.63261 4012 ft 218 kts 160°
2026-04-30 18:48 49.99752 14.63356 4012 ft 221 kts 196°
2026-04-30 18:48 49.98370 14.62324 4013 ft 222 kts 216°
2026-04-30 18:49 49.97280 14.60635 4014 ft 222 kts 237°
2026-04-30 18:49 49.96609 14.58494 4014 ft 220 kts 257°
2026-04-30 18:49 49.96427 14.56153 4012 ft 218 kts 276°
2026-04-30 18:49 49.96742 14.53880 4013 ft 215 kts 296°
2026-04-30 18:50 49.97499 14.51907 4017 ft 212 kts 310°
2026-04-30 18:50 49.98396 14.50076 4016 ft 213 kts 310°
2026-04-30 18:50 49.99285 14.48259 4008 ft 206 kts 310°
2026-04-30 18:50 50.00128 14.46528 4005 ft 197 kts 310°
2026-04-30 18:51 50.00953 14.44835 3895 ft 195 kts 310°
2026-04-30 18:51 50.01760 14.43179 3699 ft 189 kts 310°
2026-04-30 18:51 50.02546 14.41562 3430 ft 185 kts 310°
2026-04-30 18:51 50.03305 14.40003 3180 ft 181 kts 311°
2026-04-30 18:52 50.04054 14.38460 2938 ft 175 kts 311°
2026-04-30 18:52 50.04755 14.37014 2731 ft 158 kts 311°
2026-04-30 18:52 50.05389 14.35711 2503 ft 145 kts 312°
2026-04-30 18:52 50.05986 14.34491 2270 ft 139 kts 312°
2026-04-30 18:53 50.06557 14.33294 2075 ft 137 kts 311°
2026-04-30 18:53 50.07128 14.32125 1887 ft 135 kts 311°
2026-04-30 18:53 50.07697 14.30965 1701 ft 135 kts 310°
2026-04-30 18:53 50.08255 14.29788 1518 ft 136 kts 309°
2026-04-30 18:54 50.08818 14.28618 1368 ft 135 kts 309°
2026-04-30 18:54 50.09388 14.27462 1232 ft 133 kts 310°
2026-04-30 18:54 50.09901 14.26419 1201 ft 102 kts 306°
2026-04-30 18:54 50.10203 14.25789 1188 ft 41 kts 307°
2026-04-30 18:55 50.10380 14.25667 1184 ft 26 kts 352°
2026-04-30 18:55 50.10445 14.25675 1182 ft 2 kts 27°
2026-04-30 18:55 50.10464 14.25696 1182 ft 5 kts 43°
2026-04-30 18:56 50.10489 14.25776 1177 ft 5 kts 74°
2026-04-30 18:56 50.10498 14.25838 1177 ft 7 kts 78°
2026-04-30 18:56 50.10506 14.25933 1176 ft 10 kts 92°
2026-04-30 18:57 50.10422 14.26141 1174 ft 19 kts 129°
2026-04-30 18:57 50.10339 14.26306 1173 ft 18 kts 127°
2026-04-30 18:57 50.10266 14.26460 1177 ft 17 kts 116°
2026-04-30 18:58 50.10372 14.26608 1172 ft 10 kts 312°
2026-04-30 18:58 50.10415 14.26559 1173 ft 5 kts 22°
2026-04-30 18:58 50.10425 14.26573 1174 ft 1 kts 34°
2026-04-30 18:59 50.10436 14.26584 1170 ft 0 kts 34°
2026-04-30 19:00 50.10436 14.26585 1170 ft 0 kts 34°